Temp
-4 -5 -5 -5 -5 -5 -5 -5 -6 -5 -5 -6 -6 -7 -7 -7 -7 -7 -7 -7 -8 -8 -7 -8 -7 -7 -7 -7 -7 -6 -6 -6 -7 -7 -7 -7 -7 -7 -7 -7 -8 -8 -8
-5 -4 -5 -4 -5 -5 -5 -5 -5 -5 -5 -6 -7 -7 -7 -7 -7 -7 -7 -7 -8 -8 -8 -8 -8 -8 -7 -7 -7 -7 -7 -7 -7 -7 -7 -7 -7 -7 -7 -7 -7 -8 -8
-4 -4 -5 -4 -4 -5 -5 -5 -5 -6 -6 -7 -7 -7 -7 -7 -7 -7 -7 -7 -8 -8 -8 -8 -8 -8 -8 -8 -8 -8 -7 -7 -7 -7 -7 -7 -7 -7 -7 -7 -7 -8 -8
-4 -4 -5 -5 -5 -5 -6 -6 -6 -7 -7 -7 -7 -7 -7 -7 -7 -7 -7 -7 -8 -8 -8 -8 -8 -8 -8 -8 -8 -8 -8 -8 -7 -7 -7 -7 -7 -7 -7 -7 -7 -7 -7
-4 -5 -5 -5 -5 -6 -6 -6 -7 -7 -7 -7 -7 -7 -7 -7 -7 -7 -7 -7 -7 -8 -8 -8 -8 -8 -8 -8 -8 -8 -8 -8 -8 -8 -8 -7 -7 -7 -7 -7 -7 -7 -7
-5 -5 -5 -5 -6 -6 -7 -7 -7 -7 -7 -7 -7 -7 -8 -7 -7 -7 -7 -7 -7 -8 -8 -8 -8 -8 -8 -8 -8 -8 -8 -8 -8 -8 -8 -8 -7 -7 -7 -7 -7 -7 -7
-5 -5 -5 -6 -6 -6 -7 -7 -7 -7 -7 -7 -7 -8 -7 -8 -8 -8 -8 -7 -8 -8 -8 -8 -8 -8 -8 -8 -8 -8 -8 -8 -8 -8 -8 -8 -8 -8 -8 -7 -8 -7 -7
-5 -5 -6 -6 -6 -6 -6 -6 -6 -6 -7 -7 -7 -7 -7 -8 -8 -8 -8 -8 -8 -8 -8 -8 -8 -8 -8 -8 -8 -8 -9 -9 -9 -9 -9 -8 -8 -8 -8 -8 -7 -7 -7
-6 -6 -6 -6 -6 -6 -6 -6 -6 -6 -6 -7 -7 -7 -7 -7 -8 -8 -8 -8 -8 -8 -8 -8 -8 -8 -8 -8 -8 -8 -9 -8 -8 -9 -9 -8 -8 -8 -8 -8 -8 -7 -7
-6 -6 -6 -6 -6 -6 -6 -6 -6 -6 -7 -7 -7 -7 -7 -7 -8 -8 -8 -8 -8 -8 -8 -8 -8 -8 -8 -8 -8 -9 -9 -9 -9 -9 -9 -8 -8 -9 -9 -8 -8 -8 -7
-6 -6 -6 -6 -6 -6 -6 -6 -6 -7 -7 -7 -7 -7 -7 -7 -7 -7 -7 -7 -7 -7 -7 -7 -8 -8 -8 -8 -8 -8 -9 -8 -8 -8 -9 -9 -8 -8 -9 -8 -8 -8 -8
-6 -6 -6 -5 -5 -6 -6 -6 -6 -6 -7 -7 -6 -7 -7 -7 -7 -7 -7 -8 -7 -7 -7 -7 -8 -8 -8 -8 -8 -8 -8 -9 -9 -9 -8 -8 -8 -8 -9 -9 -8 -8 -8
-6 -5 -5 -5 -5 -6 -6 -6 -6 -6 -6 -6 -7 -7 -7 -7 -7 -7 -7 -7 -7 -7 -7 -7 -7 -8 -8 -8 -8 -8 -8 -8 -8 -8 -8 -8 -8 -8 -8 -9 -9 -9 -8
-5 -5 -5 -5 -6 -6 -6 -6 -6 -6 -6 -6 -6 -7 -7 -7 -7 -6 -6 -7 -7 -7 -7 -7 -8 -8 -8 -8 -8 -8 -8 -8 -8 -8 -8 -8 -8 -8 -8 -8 -8 -8 -9
-5 -5 -6 -5 -6 -6 -6 -6 -6 -6 -6 -6 -6 -6 -6 -6 -7 -7 -7 -7 -7 -7 -7 -7 -7 -7 -8 -8 -7 -8 -8 -8 -8 -8 -8 -8 -8 -8 -8 -8 -8 -8 -8
-5 -5 -6 -6 -6 -6 -6 -6 -6 -6 -6 -6 -6 -6 -7 -6 -6 -6 -6 -6 -7 -7 -7 -7 -7 -7 -7 -7 -8 -8 -8 -8 -8 -8 -8 -8 -8 -8 -8 -8 -8 -8 -9
-5 -5 -6 -6 -6 -6 -6 -6 -6 -6 -6 -6 -6 -6 -6 -6 -7 -6 -7 -6 -6 -6 -7 -7 -7 -7 -7 -7 -7 -7 -7 -7 -7 -8 -8 -8 -8 -8 -8 -8 -8 -8 -8
-5 -5 -6 -6 -6 -6 -6 -6 -6 -6 -6 -6 -6 -6 -6 -6 -6 -6 -6 -6 -6 -6 -6 -6 -7 -7 -7 -7 -7 -7 -7 -7 -8 -8 -8 -8 -8 -8 -8 -8 -8 -8 -8
-5 -5 -5 -6 -6 -6 -6 -6 -6 -6 -6 -6 -6 -6 -6 -6 -6 -6 -6 -6 -6 -6 -6 -6 -6 -6 -7 -6 -7 -7 -7 -7 -7 -7 -8 -8 -8 -8 -8 -8 -8 -8 -8
-5 -5 -5 -6 -6 -6 -6 -6 -6 -6 -6 -6 -6 -6 -6 -6 -6 -6 -6 -6 -6 -6 -6 -6 -6 -6 -7 -6 -6 -6 -6 -7 -7 -7 -7 -7 -8 -8 -8 -8 -8 -8 -8
-5 -5 -5 -5 -6 -6 -6 -6 -6 -6 -6 -6 -6 -6 -6 -6 -6 -6 -6 -6 -6 -6 -6 -6 -6 -7 -6 -6 -6 -7 -7 -6 -7 -7 -7 -7 -7 -8 -8 -8 -8 -9 -8
-4 -4 -4 -5 -5 -5 -5 -5 -6 -6 -6 -6 -6 -6 -6 -6 -6 -6 -6 -6 -6 -6 -6 -6 -7 -7 -7 -6 -6 -7 -7 -7 -7 -7 -7 -8 -8 -8 -8 -8 -8 -8 -8
-4 -4 -4 -4 -4 -5 -5 -5 -5 -5 -5 -6 -6 -6 -6 -6 -6 -6 -6 -6 -6 -6 -6 -7 -7 -7 -7 -7 -7 -7 -7 -7 -7 -8 -8 -8 -8 -8 -8 -8 -8 -9 -8
-3 -4 -4 -4 -4 -4 -4 -5 -5 -5 -6 -6 -6 -6 -6 -6 -6 -6 -6 -6 -6 -6 -6 -6 -7 -7 -7 -8 -8 -8 -7 -7 -8 -7 -8 -8 -8 -8 -8 -8 -8 -8 -9
-4 -4 -4 -4 -4 -4 -5 -5 -5 -5 -5 -6 -6 -6 -6 -6 -6 -6 -6 -6 -6 -6 -6 -6 -6 -7 -7 -8 -8 -8 -8 -8 -8 -8 -8 -8 -8 -9 -9 -9 -9 -8 -8
-5 -5 -5 -5 -5 -5 -5 -5 -5 -5 -6 -6 -6 -6 -6 -6 -6 -6 -6 -6 -5 -5 -6 -6 -7 -7 -7 -7 -8 -9 -9 -9 -8 -8 -8 -8 -8 -8 -8 -9 -9 -9 -9
Height
5896 5897 5898 5900 5899 5900 5901 5901 5903 5901 5901 5901 5903 5905 5906 5907 5908 5909 5909 5909 5909 5909 5909 5910 5911 5912 5912 5912 5912 5913 5912 5910 5910 5910 5910 5910 5910 5910 5910 5911 5913 5915 5917
5898 5899 5901 5902 5901 5902 5901 5902 5903 5903 5905 5905 5905 5908 5910 5910 5910 5911 5911 5911 5911 5911 5912 5912 5913 5913 5913 5913 5913 5913 5912 5912 5912 5912 5912 5911 5912 5913 5912 5913 5914 5916 5916
5901 5901 5902 5903 5903 5903 5904 5905 5905 5906 5907 5907 5908 5911 5912 5912 5912 5912 5912 5913 5913 5914 5913 5914 5914 5914 5914 5914 5914 5914 5914 5913 5912 5912 5912 5912 5913 5913 5914 5915 5916 5916 5916
5902 5903 5904 5905 5905 5906 5906 5906 5907 5908 5909 5910 5912 5913 5913 5913 5914 5914 5914 5914 5914 5915 5915 5916 5915 5915 5915 5915 5914 5914 5915 5914 5913 5913 5912 5913 5913 5915 5915 5916 5917 5917 5917
5905 5905 5906 5907 5907 5907 5908 5908 5909 5911 5911 5912 5913 5914 5914 5915 5915 5916 5915 5915 5915 5916 5917 5917 5916 5916 5916 5915 5915 5915 5915 5915 5914 5914 5914 5914 5913 5913 5915 5916 5917 5917 5918
5906 5907 5907 5908 5908 5908 5909 5910 5911 5913 5913 5914 5915 5915 5915 5915 5916 5916 5916 5916 5915 5915 5915 5916 5915 5915 5914 5914 5915 5914 5913 5916 5916 5916 5916 5916 5914 5912 5914 5916 5916 5918 5919
5908 5908 5909 5909 5909 5911 5911 5912 5913 5914 5914 5915 5915 5916 5916 5917 5917 5916 5917 5917 5916 5916 5917 5916 5916 5916 5915 5915 5915 5912 5914 5913 5912 5911 5912 5913 5914 5914 5912 5915 5917 5918 5918
5909 5909 5910 5910 5911 5913 5913 5914 5915 5915 5916 5916 5916 5917 5917 5917 5917 5917 5918 5917 5917 5917 5916 5917 5916 5916 5915 5916 5915 5914 5914 5912 5910 5907 5910 5913 5915 5916 5913 5915 5917 5919 5919
5910 5910 5911 5912 5914 5915 5915 5916 5917 5917 5918 5918 5918 5919 5919 5918 5918 5919 5918 5918 5919 5920 5920 5919 5919 5918 5916 5917 5916 5916 5913 5912 5912 5908 5911 5912 5916 5917 5914 5915 5917 5918 5919
5909 5911 5912 5914 5915 5916 5917 5918 5919 5919 5919 5920 5920 5921 5920 5920 5921 5920 5920 5922 5921 5921 5921 5922 5920 5919 5918 5917 5916 5916 5913 5910 5909 5912 5913 5913 5915 5916 5914 5917 5917 5917 5918
5910 5912 5913 5915 5917 5918 5919 5920 5921 5921 5922 5922 5923 5923 5922 5923 5924 5922 5923 5923 5922 5923 5923 5923 5923 5922 5918 5919 5920 5918 5917 5911 5898 5907 5912 5915 5916 5914 5912 5916 5917 5916 5917
5911 5913 5915 5917 5918 5920 5921 5922 5922 5923 5923 5924 5924 5924 5924 5925 5926 5922 5926 5926 5924 5926 5927 5926 5924 5925 5922 5921 5923 5922 5919 5917 5912 5911 5911 5913 5912 5912 5912 5914 5916 5914 5915
5911 5913 5917 5919 5920 5921 5922 5923 5924 5924 5925 5925 5926 5927 5928 5928 5928 5922 5927 5931 5927 5927 5929 5929 5928 5928 5925 5924 5923 5923 5921 5921 5916 5914 5915 5916 5912 5911 5911 5913 5915 5912 5913
5913 5916 5919 5921 5922 5923 5924 5925 5926 5926 5926 5927 5927 5930 5931 5931 5931 5930 5930 5931 5930 5929 5930 5930 5929 5928 5926 5926 5923 5921 5922 5923 5921 5919 5918 5916 5913 5912 5911 5910 5913 5911 5911
5916 5919 5921 5923 5923 5925 5924 5926 5927 5927 5928 5929 5930 5932 5932 5932 5932 5932 5932 5932 5934 5934 5933 5931 5929 5927 5928 5925 5922 5919 5917 5922 5923 5921 5920 5917 5915 5912 5910 5912 5911 5910 5910
5918 5920 5923 5924 5925 5925 5926 5928 5929 5929 5931 5931 5932 5932 5933 5933 5933 5934 5934 5934 5934 5935 5934 5932 5929 5928 5926 5923 5923 5922 5920 5919 5921 5920 5917 5915 5914 5911 5911 5911 5910 5909 5909
5919 5921 5924 5925 5926 5926 5928 5929 5930 5931 5932 5933 5933 5934 5935 5935 5935 5936 5935 5935 5934 5934 5933 5933 5931 5929 5927 5926 5924 5922 5921 5919 5918 5918 5918 5915 5912 5912 5912 5910 5908 5908 5907
5921 5923 5925 5926 5925 5926 5928 5929 5931 5931 5933 5935 5935 5936 5936 5936 5936 5937 5937 5937 5935 5934 5933 5932 5930 5928 5927 5926 5925 5923 5921 5920 5918 5916 5916 5915 5913 5912 5910 5909 5908 5907 5906
5921 5923 5924 5924 5925 5927 5929 5930 5931 5932 5934 5935 5936 5937 5937 5936 5936 5936 5936 5936 5935 5934 5933 5932 5931 5930 5927 5926 5924 5922 5920 5918 5918 5916 5914 5913 5914 5911 5910 5909 5908 5907 5905
5921 5923 5924 5925 5926 5928 5929 5930 5931 5932 5934 5935 5936 5937 5937 5937 5937 5936 5936 5936 5934 5933 5932 5931 5931 5929 5927 5925 5922 5921 5920 5917 5915 5915 5913 5912 5912 5911 5910 5908 5906 5905 5904
5922 5924 5925 5926 5927 5928 5929 5930 5931 5933 5934 5934 5936 5936 5937 5937 5936 5936 5936 5934 5933 5932 5931 5930 5929 5927 5925 5924 5923 5919 5917 5916 5914 5912 5911 5911 5910 5910 5907 5907 5906 5904 5903
5921 5923 5924 5926 5927 5927 5928 5929 5931 5932 5933 5934 5935 5935 5936 5936 5936 5935 5934 5932 5931 5930 5929 5928 5926 5924 5922 5921 5919 5918 5916 5913 5912 5910 5909 5908 5908 5906 5907 5906 5904 5902 5901
5919 5921 5922 5924 5925 5926 5927 5927 5929 5931 5931 5933 5933 5933 5933 5934 5933 5932 5932 5931 5929 5927 5925 5924 5921 5921 5917 5916 5914 5913 5912 5911 5911 5909 5906 5906 5905 5904 5902 5903 5902 5900 5899
5918 5919 5920 5921 5922 5924 5925 5926 5928 5929 5930 5930 5931 5931 5930 5930 5930 5929 5928 5927 5926 5925 5922 5921 5917 5914 5912 5908 5907 5907 5906 5906 5905 5906 5904 5902 5901 5901 5898 5898 5899 5899 5897
5917 5918 5918 5919 5920 5922 5923 5924 5925 5927 5928 5929 5929 5928 5928 5928 5928 5926 5926 5925 5924 5922 5920 5917 5914 5910 5904 5904 5903 5900 5900 5900 5900 5900 5900 5900 5898 5895 5896 5895 5893 5893 5893
5915 5915 5915 5916 5918 5919 5920 5921 5922 5924 5925 5925 5925 5924 5924 5924 5923 5924 5923 5923 5921 5920 5917 5913 5908 5904 5899 5898 5896 5896 5895 5895 5894 5893 5894 5894 5894 5894 5892 5891 5889 5887 5887
Wind_Speed
15 15 20 21 16 13 8 13 10 13 12 13 13 11 10 10 10 9 10 10 9 11 12 15 16 17 18 18 17 18 18 18 17 17 16 15 13 12 11 11 10 10 8
22 17 15 12 12 12 16 15 14 12 11 13 13 10 9 10 11 10 11 9 10 10 11 13 12 14 14 17 17 18 19 18 15 15 15 15 13 11 11 10 8 7 6
15 16 17 17 16 15 15 14 13 13 13 13 12 10 10 11 10 9 10 11 10 10 10 10 11 12 12 12 11 10 16 16 15 11 13 14 11 10 9 8 7 5 4
17 17 17 17 16 15 15 13 14 14 13 12 11 11 11 11 9 10 10 10 11 10 9 8 9 10 9 10 10 9 10 12 13 10 12 10 10 9 9 8 7 5 5
15 16 16 15 14 14 14 14 14 13 13 12 12 12 12 12 13 12 11 11 10 9 7 7 8 7 7 7 5 5 4 5 6 9 10 8 7 10 8 8 7 4 3
15 15 14 14 14 15 14 15 14 12 12 11 10 11 12 11 11 11 12 11 10 8 7 6 5 5 4 3 4 3 2 4 1 2 7 6 8 11 10 7 7 5 3
13 12 12 13 14 12 13 14 13 12 9 9 10 11 10 9 10 10 9 8 8 8 9 8 7 4 3 3 3 3 2 2 5 10 8 6 7 10 12 10 7 4 3
10 10 10 11 12 13 14 14 14 12 10 11 11 9 9 7 8 7 7 7 6 6 6 5 4 4 3 3 4 5 5 4 10 13 13 8 6 6 9 10 8 5 4
7 8 10 11 12 14 15 15 15 15 14 14 12 11 10 9 9 8 8 7 6 6 6 4 4 4 5 7 7 7 8 10 13 9 12 9 5 2 4 4 5 5 4
5 8 11 12 14 15 16 17 17 16 15 15 14 14 13 11 11 9 9 10 9 8 7 9 6 4 7 6 5 7 8 11 9 10 9 6 4 3 2 2 1 1 2
9 11 12 15 15 15 16 16 16 15 15 15 14 14 13 12 14 12 14 15 14 14 12 12 11 12 10 10 12 12 14 14 17 9 12 6 1 2 2 4 3 2 2
13 13 13 15 15 15 14 13 12 14 13 14 14 14 13 12 13 10 14 15 14 14 13 13 13 12 8 9 13 12 11 15 19 18 13 5 6 3 2 5 7 3 4
13 15 15 15 16 14 13 11 11 12 11 11 11 11 11 11 12 4 13 11 15 8 9 12 10 9 11 10 12 13 12 14 14 13 11 7 7 5 3 3 7 5 5
15 17 16 15 15 13 11 11 11 11 10 7 8 9 9 9 10 8 10 12 11 10 11 7 10 12 11 8 10 11 13 14 15 10 13 12 12 10 7 5 6 7 8
18 17 16 15 14 12 12 10 10 9 7 6 6 6 6 7 7 7 8 9 9 7 8 9 12 13 12 15 15 15 16 14 12 10 8 11 10 10 11 10 8 8 8
18 17 15 15 12 12 11 9 7 6 6 6 4 6 4 3 5 4 7 7 7 8 8 10 10 10 12 14 15 13 13 13 11 11 11 10 10 11 10 9 9 10 10
17 16 14 13 13 12 10 8 8 6 6 6 6 6 4 5 3 5 6 8 9 11 11 10 10 10 10 10 14 17 16 15 14 11 8 10 10 10 10 10 9 10 10
16 16 13 11 11 10 8 8 8 7 6 6 5 4 4 5 5 4 4 6 9 11 12 12 12 13 12 11 10 11 12 12 12 13 11 6 8 9 9 11 10 9 9
14 13 10 7 7 7 7 5 6 6 5 5 5 4 3 3 3 3 5 6 7 10 12 13 13 13 14 14 11 11 11 12 11 12 12 9 5 8 10 11 12 11 11
11 10 9 8 4 3 4 3 4 4 4 4 2 1 3 4 5 6 9 11 13 13 13 14 15 15 15 14 14 13 11 10 11 11 11 11 8 8 10 11 12 11 11
8 8 7 6 6 4 3 3 3 4 3 3 1 1 4 6 7 8 9 12 12 14 14 15 16 19 20 18 17 16 15 12 12 12 13 10 12 10 10 10 12 11 9
8 7 7 7 7 6 6 4 3 4 4 3 2 4 6 7 9 10 11 12 12 14 15 16 18 20 23 22 20 18 15 18 16 14 14 13 9 13 9 11 11 11 12
7 7 7 7 7 8 8 6 5 6 5 5 4 6 8 9 10 8 7 8 11 14 15 17 19 19 22 27 24 20 17 15 14 16 17 14 13 10 13 10 11 13 11
6 6 8 8 9 8 8 8 7 6 6 6 6 9 10 11 8 7 7 8 11 14 17 19 22 21 24 23 26 22 20 17 14 13 15 17 17 13 15 12 11 11 14
10 11 11 10 11 10 10 9 9 8 6 7 7 7 6 6 5 6 5 11 13 17 19 24 27 32 32 25 23 24 22 21 19 16 15 15 16 20 18 17 17 15 15
11 12 13 13 11 13 13 12 11 9 7 8 5 3 4 3 5 3 7 12 17 20 22 24 25 30 29 19 27 24 21 21 20 20 18 18 18 16 16 19 22 23 21
Wind_Direction
93 94 115 112 96 78 85 108 129 126 122 118 120 120 125 109 100 90 80 95 106 101 95 88 87 86 88 89 85 78 76 74 73 75 76 78 80 92 99 105 123 140 152
93 92 93 97 107 111 119 124 127 124 124 125 126 125 108 104 92 78 77 92 105 104 99 91 86 80 80 75 72 69 69 68 73 65 70 74 74 78 92 106 114 134 138
83 88 94 103 112 117 117 121 121 117 118 116 109 104 96 87 80 81 76 81 100 101 97 94 88 80 77 68 61 61 62 65 67 68 69 69 80 85 84 90 105 112 115
88 85 93 101 105 112 115 116 111 107 103 97 94 90 87 85 88 80 79 84 94 92 89 87 82 80 73 60 51 53 50 62 66 70 68 74 82 93 97 89 77 95 90
89 92 92 98 109 113 114 108 101 101 101 98 93 91 91 90 83 83 82 78 75 83 87 77 75 74 70 62 52 37 26 52 79 66 72 73 94 91 83 90 80 75 93
92 91 93 98 100 103 107 105 107 106 100 96 96 94 92 87 87 90 85 82 82 87 91 87 72 59 53 56 59 57 359 338 228 119 80 77 85 89 81 74 88 78 70
92 86 86 91 96 106 109 109 105 100 97 103 99 88 82 85 88 89 93 91 88 77 69 68 62 44 25 352 341 315 320 326 252 234 204 124 89 90 89 78 68 81 64
91 83 89 90 99 104 100 100 103 102 99 95 93 90 81 73 68 71 76 87 81 85 80 55 58 47 14 8 347 329 328 281 265 229 178 148 113 97 87 85 74 56 59
95 91 96 93 103 101 100 104 106 102 95 92 97 91 81 69 66 61 60 69 65 44 42 26 357 353 343 340 324 326 315 310 327 5 166 134 108 117 89 84 86 70 49
108 109 109 106 110 110 110 108 107 103 99 96 95 88 79 74 67 65 65 67 73 67 44 44 35 35 32 354 10 341 316 347 327 345 115 109 124 131 120 278 254 65 32
130 121 116 119 117 114 115 113 110 105 100 96 89 86 85 81 79 76 79 79 77 74 73 71 62 65 62 42 35 19 18 14 356 8 47 19 41 64 176 230 268 266 271
134 130 124 123 120 120 119 117 118 110 105 99 89 90 90 92 87 83 79 86 81 72 78 73 75 48 57 32 43 47 37 42 24 35 48 39 358 9 9 252 250 241 265
139 131 128 128 126 123 117 117 116 115 108 104 101 94 91 88 89 15 93 74 61 78 61 63 71 61 55 37 34 40 35 43 40 47 23 28 41 35 13 294 274 262 257
133 131 130 129 123 119 116 115 112 116 114 109 106 95 99 100 97 83 69 65 64 49 34 34 43 51 48 31 32 23 37 37 35 27 13 21 29 33 38 358 295 281 270
136 133 127 128 120 121 112 111 113 118 116 105 93 99 94 93 85 70 52 46 59 48 30 37 29 26 16 11 16 12 7 29 35 33 11 13 7 17 25 14 359 332 304
141 133 137 125 121 114 111 108 112 108 110 101 107 91 87 87 71 42 44 33 26 29 19 25 31 10 9 0 356 356 356 359 19 19 3 355 354 2 8 3 358 355 355
145 140 142 136 122 110 112 102 96 91 82 84 79 86 83 60 27 22 21 10 4 11 356 0 357 352 357 356 343 337 340 341 353 5 7 344 345 354 350 351 353 344 351
150 151 153 138 113 102 96 93 98 95 93 89 81 83 62 55 48 27 25 8 357 355 343 349 344 344 338 346 336 328 325 332 342 339 347 355 335 332 334 334 337 334 337
163 159 148 133 122 105 100 98 100 102 102 91 80 68 71 54 34 6 342 345 353 339 342 340 341 337 330 339 332 324 331 330 337 335 339 329 344 312 324 325 335 340 330
173 167 165 163 172 138 118 109 124 125 132 112 120 343 352 351 338 340 339 336 336 334 337 332 332 333 323 327 323 322 324 324 325 332 326 325 317 318 317 325 329 330 322
183 193 194 195 205 199 194 193 174 158 156 176 227 325 329 315 327 327 326 328 329 331 330 333 334 333 328 325 323 324 317 317 320 320 323 324 312 315 310 313 322 321 312
204 214 221 226 220 234 237 230 220 204 212 236 274 299 305 311 312 323 329 332 338 336 336 337 332 333 329 325 322 325 318 314 314 314 315 319 322 308 308 310 317 318 315
201 216 229 238 236 229 237 235 224 222 236 245 276 291 296 312 321 329 334 334 335 332 325 323 319 318 327 321 317 313 316 309 303 305 306 308 317 312 306 304 305 307 297
242 252 247 240 245 238 242 242 239 238 246 264 283 288 301 306 317 317 321 341 333 328 323 319 314 311 313 310 311 313 307 307 301 298 298 303 304 310 307 305 300 290 288
270 274 275 265 253 247 243 246 246 251 250 262 267 275 276 295 290 299 357 355 351 351 341 334 324 316 306 310 298 306 310 306 305 302 297 298 297 304 306 308 308 299 294
285 274 267 265 266 263 252 248 251 260 263 284 290 296 299 293 294 307 334 337 339 343 342 344 350 354 350 319 316 285 301 307 307 308 304 303 299 291 288 300 308 306 302